Time,TemperatureF,DewpointF,PressureIn,WindDirection,WindDirectionDegrees,WindSpeedMPH,WindSpeedGustMPH,Humidity,HourlyPrecipIn,Conditions,Clouds,dailyrainin,SoftwareType,DateUTC
2013-04-15 00:02:00,44.3,43.2,29.89,SW,235,3.0,3.0,96,0.00,,,0.00,Wunderground v.1.15,2013-04-15 07:02:00,
2013-04-15 00:41:00,44.0,42.9,29.87,South,169,4.0,5.0,96,0.00,,,0.00,Wunderground v.1.15,2013-04-15 07:41:00,
2013-04-15 00:42:00,44.0,42.9,29.87,SW,234,4.0,6.0,96,0.00,,,0.00,Wunderground v.1.15,2013-04-15 07:42:00,
2013-04-15 00:44:00,44.0,42.9,29.87,SSW,195,4.0,10.0,96,0.00,,,0.00,Wunderground v.1.15,2013-04-15 07:44:00,
2013-04-15 00:48:00,44.1,43.0,29.88,SW,229,4.0,10.0,96,0.00,,,0.00,Wunderground v.1.15,2013-04-15 07:48:00,
2013-04-15 00:50:00,44.1,43.0,29.88,SW,226,4.0,10.0,96,0.00,,,0.00,Wunderground v.1.15,2013-04-15 07:50:00,
2013-04-15 00:54:00,44.1,43.0,29.88,SW,236,4.0,10.0,96,0.00,,,0.00,Wunderground v.1.15,2013-04-15 07:54:00,
2013-04-15 00:56:00,44.2,43.1,29.87,SSW,199,4.0,10.0,96,0.00,,,0.00,Wunderground v.1.15,2013-04-15 07:56:00,
2013-04-15 01:01:00,44.2,43.1,29.87,SW,214,4.0,5.0,96,0.00,,,0.00,Wunderground v.1.15,2013-04-15 08:01:00,
2013-04-15 01:06:00,44.3,43.2,29.88,SSW,213,4.0,6.0,96,0.00,,,0.00,Wunderground v.1.15,2013-04-15 08:06:00,
2013-04-15 01:12:00,44.2,43.1,29.87,WSW,240,4.0,5.0,96,0.00,,,0.00,Wunderground v.1.15,2013-04-15 08:12:00,
2013-04-15 01:18:00,44.2,43.1,29.87,SW,220,4.0,5.0,96,0.00,,,0.00,Wunderground v.1.15,2013-04-15 08:18:00,
2013-04-15 01:23:00,44.4,43.3,29.88,SW,233,4.0,5.0,96,0.00,,,0.00,Wunderground v.1.15,2013-04-15 08:23:00,
2013-04-15 01:28:00,44.5,43.4,29.87,WSW,248,3.0,7.0,96,0.00,,,0.01,Wunderground v.1.15,2013-04-15 08:28:00,
2013-04-15 01:34:00,44.5,43.4,29.88,SSW,204,4.0,9.0,96,0.00,,,0.01,Wunderground v.1.15,2013-04-15 08:34:00,
2013-04-15 01:35:00,44.5,43.7,29.88,WSW,247,4.0,9.0,97,0.00,,,0.01,Wunderground v.1.15,2013-04-15 08:35:00,
2013-04-15 01:40:00,44.5,43.4,29.88,SSW,206,4.0,4.0,96,0.00,,,0.01,Wunderground v.1.15,2013-04-15 08:40:00,
2013-04-15 01:41:00,44.5,43.4,29.88,WSW,246,4.0,9.0,96,0.00,,,0.01,Wunderground v.1.15,2013-04-15 08:41:00,
2013-04-15 01:43:00,44.5,43.4,29.88,SW,214,4.0,9.0,96,0.00,,,0.01,Wunderground v.1.15,2013-04-15 08:43:00,
2013-04-15 01:48:00,44.5,43.4,29.87,West,269,4.0,9.0,96,0.00,,,0.01,Wunderground v.1.15,2013-04-15 08:48:00,
2013-04-15 01:54:00,44.4,43.3,29.87,WSW,252,5.0,9.0,96,0.00,,,0.01,Wunderground v.1.15,2013-04-15 08:54:00,
2013-04-15 02:00:00,44.4,43.6,29.87,WSW,243,3.0,5.0,97,0.00,,,0.01,Wunderground v.1.15,2013-04-15 09:00:00,
2013-04-15 02:06:00,44.3,43.5,29.87,West,275,2.0,5.0,97,0.00,,,0.02,Wunderground v.1.15,2013-04-15 09:06:00,
2013-04-15 02:12:00,44.3,43.5,29.87,WSW,242,2.0,3.0,97,0.00,,,0.02,Wunderground v.1.15,2013-04-15 09:12:00,
2013-04-15 02:18:00,44.3,43.5,29.87,SW,220,2.0,3.0,97,0.00,,,0.02,Wunderground v.1.15,2013-04-15 09:18:00,
2013-04-15 02:23:00,44.3,43.5,29.87,WSW,257,3.0,4.0,97,0.00,,,0.02,Wunderground v.1.15,2013-04-15 09:23:00,
2013-04-15 02:29:00,44.2,43.4,29.86,SW,228,3.0,5.0,97,0.00,,,0.02,Wunderground v.1.15,2013-04-15 09:29:00,
2013-04-15 02:35:00,44.1,43.3,29.86,WSW,242,3.0,12.0,97,0.00,,,0.02,Wunderground v.1.15,2013-04-15 09:35:00,
2013-04-15 02:41:00,44.0,43.2,29.86,WSW,241,3.0,12.0,97,0.00,,,0.03,Wunderground v.1.15,2013-04-15 09:41:00,
2013-04-15 02:47:00,44.0,43.2,29.86,SSW,211,2.0,12.0,97,0.00,,,0.03,Wunderground v.1.15,2013-04-15 09:47:00,
2013-04-15 02:52:00,44.0,43.2,29.86,WSW,251,2.0,12.0,97,0.05,,,0.04,Wunderground v.1.15,2013-04-15 09:52:00,
2013-04-15 02:58:00,44.0,43.2,29.86,West,274,2.0,12.0,97,0.05,,,0.04,Wunderground v.1.15,2013-04-15 09:58:00,
2013-04-15 03:03:00,44.0,43.2,29.86,WSW,244,2.0,2.0,97,0.05,,,0.04,Wunderground v.1.15,2013-04-15 10:03:00,
2013-04-15 03:09:00,43.9,43.1,29.85,SW,228,2.0,5.0,97,0.00,,,0.04,Wunderground v.1.15,2013-04-15 10:09:00,
2013-04-15 03:14:00,43.9,43.1,29.85,SSW,195,4.0,6.0,97,0.00,,,0.04,Wunderground v.1.15,2013-04-15 10:14:00,
2013-04-15 03:20:00,43.8,43.0,29.86,WSW,239,4.0,4.0,97,0.00,,,0.05,Wunderground v.1.15,2013-04-15 10:20:00,
2013-04-15 03:26:00,43.6,42.8,29.86,WSW,244,4.0,7.0,97,0.00,,,0.05,Wunderground v.1.15,2013-04-15 10:26:00,
2013-04-15 03:32:00,43.3,42.5,29.86,WSW,252,3.0,8.0,97,0.00,,,0.05,Wunderground v.1.15,2013-04-15 10:32:00,
2013-04-15 03:37:00,43.2,42.4,29.86,SW,232,2.0,8.0,97,0.00,,,0.05,Wunderground v.1.15,2013-04-15 10:37:00,
2013-04-15 03:42:00,42.8,42.0,29.86,SW,231,3.0,8.0,97,0.00,,,0.05,Wunderground v.1.15,2013-04-15 10:42:00,
2013-04-15 03:48:00,42.5,41.7,29.86,West,267,3.0,8.0,97,0.00,,,0.05,Wunderground v.1.15,2013-04-15 10:48:00,
2013-04-15 03:54:00,42.1,41.0,29.86,West,270,2.0,8.0,96,0.00,,,0.05,Wunderground v.1.15,2013-04-15 10:54:00,
2013-04-15 04:00:00,41.5,40.4,29.86,WSW,257,2.0,2.0,96,0.00,,,0.05,Wunderground v.1.15,2013-04-15 11:00:00,
2013-04-15 04:06:00,41.1,40.3,29.86,West,264,2.0,3.0,97,0.00,,,0.05,Wunderground v.1.15,2013-04-15 11:06:00,
2013-04-15 04:12:00,40.6,39.5,29.86,SW,214,3.0,7.0,96,0.00,,,0.05,Wunderground v.1.15,2013-04-15 11:12:00,
2013-04-15 04:17:00,40.2,39.2,29.86,SW,221,4.0,7.0,96,0.00,,,0.05,Wunderground v.1.15,2013-04-15 11:17:00,
2013-04-15 04:22:00,39.9,38.9,29.86,SSW,205,5.0,5.0,96,0.00,,,0.05,Wunderground v.1.15,2013-04-15 11:22:00,
2013-04-15 04:27:00,39.7,38.7,29.86,SSW,210,4.0,5.0,96,0.00,,,0.05,Wunderground v.1.15,2013-04-15 11:27:00,
2013-04-15 04:33:00,39.5,38.7,29.86,SSW,208,4.0,7.0,97,0.00,,,0.05,Wunderground v.1.15,2013-04-15 11:33:00,
2013-04-15 04:39:00,39.5,38.7,29.86,SSW,192,3.0,7.0,97,0.00,,,0.05,Wunderground v.1.15,2013-04-15 11:39:00,
2013-04-15 04:44:00,39.5,38.7,29.86,South,171,3.0,7.0,97,0.00,,,0.05,Wunderground v.1.15,2013-04-15 11:44:00,
2013-04-15 04:50:00,39.4,38.6,29.86,SSE,168,4.0,4.0,97,0.00,,,0.05,Wunderground v.1.15,2013-04-15 11:50:00,
2013-04-15 04:55:00,39.3,38.5,29.86,SSE,147,4.0,7.0,97,0.00,,,0.05,Wunderground v.1.15,2013-04-15 11:55:00,
2013-04-15 05:00:00,39.3,38.5,29.86,SSE,150,6.0,7.0,97,0.00,,,0.05,Wunderground v.1.15,2013-04-15 12:00:00,
2013-04-15 05:06:00,39.3,38.5,29.86,South,180,6.0,7.0,97,0.00,,,0.05,Wunderground v.1.15,2013-04-15 12:06:00,
2013-04-15 05:12:00,39.3,38.5,29.86,SSE,164,4.0,5.0,97,0.00,,,0.05,Wunderground v.1.15,2013-04-15 12:12:00,
2013-04-15 05:18:00,39.3,38.5,29.86,SSE,154,5.0,11.0,97,0.00,,,0.05,Wunderground v.1.15,2013-04-15 12:18:00,
2013-04-15 05:23:00,39.3,38.5,29.86,SSE,161,5.0,7.0,97,0.00,,,0.05,Wunderground v.1.15,2013-04-15 12:23:00,
2013-04-15 05:28:00,39.3,38.5,29.86,SSE,163,5.0,7.0,97,0.00,,,0.05,Wunderground v.1.15,2013-04-15 12:28:00,
2013-04-15 05:34:00,39.1,38.3,29.86,SSE,156,5.0,10.0,97,0.00,,,0.05,Wunderground v.1.15,2013-04-15 12:34:00,
2013-04-15 05:40:00,39.0,38.2,29.86,South,191,4.0,4.0,97,0.00,,,0.05,Wunderground v.1.15,2013-04-15 12:40:00,
2013-04-15 05:45:00,39.1,38.3,29.86,South,171,3.0,10.0,97,0.00,,,0.05,Wunderground v.1.15,2013-04-15 12:45:00,
2013-04-15 05:51:00,39.1,38.3,29.86,SSW,206,3.0,4.0,97,0.00,,,0.05,Wunderground v.1.15,2013-04-15 12:51:00,
2013-04-15 05:57:00,39.2,38.4,29.86,SSW,198,3.0,10.0,97,0.00,,,0.05,Wunderground v.1.15,2013-04-15 12:57:00,
2013-04-15 06:03:00,39.3,38.5,29.86,SSE,166,3.0,5.0,97,0.00,,,0.05,Wunderground v.1.15,2013-04-15 13:03:00,
2013-04-15 06:09:00,39.2,38.4,29.86,SSE,168,4.0,6.0,97,0.00,,,0.05,Wunderground v.1.15,2013-04-15 13:09:00,
2013-04-15 06:15:00,39.1,38.3,29.87,SSW,195,5.0,8.0,97,0.00,,,0.05,Wunderground v.1.15,2013-04-15 13:15:00,
2013-04-15 06:20:00,39.1,38.3,29.87,South,175,4.0,6.0,97,0.00,,,0.05,Wunderground v.1.15,2013-04-15 13:20:00,
2013-04-15 06:26:00,39.1,38.3,29.87,South,184,5.0,7.0,97,0.00,,,0.05,Wunderground v.1.15,2013-04-15 13:26:00,
2013-04-15 06:31:00,39.0,38.2,29.87,South,190,5.0,8.0,97,0.00,,,0.05,Wunderground v.1.15,2013-04-15 13:31:00,
2013-04-15 06:36:00,39.0,38.2,29.87,South,180,4.0,8.0,97,0.00,,,0.05,Wunderground v.1.15,2013-04-15 13:36:00,
2013-04-15 06:42:00,39.0,38.2,29.87,SW,220,3.0,8.0,97,0.00,,,0.05,Wunderground v.1.15,2013-04-15 13:42:00,
2013-04-15 06:47:00,39.1,38.3,29.87,SW,224,3.0,8.0,97,0.00,,,0.05,Wunderground v.1.15,2013-04-15 13:47:00,
2013-04-15 06:53:00,39.1,38.3,29.88,SSW,209,3.0,8.0,97,0.00,,,0.05,Wunderground v.1.15,2013-04-15 13:53:00,
2013-04-15 06:58:00,39.2,38.4,29.88,South,184,3.0,8.0,97,0.00,,,0.05,Wunderground v.1.15,2013-04-15 13:58:00,
2013-04-15 07:03:00,39.1,38.3,29.88,SSW,203,4.0,4.0,97,0.00,,,0.05,Wunderground v.1.15,2013-04-15 14:03:00,
2013-04-15 07:10:00,39.1,38.3,29.88,South,184,4.0,4.0,97,0.00,,,0.05,Wunderground v.1.15,2013-04-15 14:10:00,
2013-04-15 07:15:00,39.1,38.3,29.88,SSE,164,4.0,7.0,97,0.00,,,0.05,Wunderground v.1.15,2013-04-15 14:15:00,
2013-04-15 07:20:00,39.1,38.3,29.88,SSE,168,5.0,5.0,97,0.00,,,0.05,Wunderground v.1.15,2013-04-15 14:20:00,
2013-04-15 07:26:00,39.2,38.4,29.88,South,171,5.0,7.0,97,0.00,,,0.05,Wunderground v.1.15,2013-04-15 14:26:00,
2013-04-15 07:32:00,39.3,38.5,29.88,SSW,203,4.0,7.0,97,0.00,,,0.05,Wunderground v.1.15,2013-04-15 14:32:00,
2013-04-15 07:38:00,39.6,38.8,29.89,SSW,197,3.0,7.0,97,0.00,,,0.05,Wunderground v.1.15,2013-04-15 14:38:00,
2013-04-15 07:43:00,39.6,38.8,29.89,SSW,195,4.0,7.0,97,0.00,,,0.05,Wunderground v.1.15,2013-04-15 14:43:00,
2013-04-15 07:48:00,39.6,38.8,29.89,SSW,192,3.0,7.0,97,0.00,,,0.05,Wunderground v.1.15,2013-04-15 14:48:00,
2013-04-15 07:54:00,39.9,39.1,29.89,SW,217,3.0,7.0,97,0.00,,,0.05,Wunderground v.1.15,2013-04-15 14:54:00,
2013-04-15 08:00:00,39.8,39.0,29.89,SSW,198,4.0,5.0,97,0.00,,,0.05,Wunderground v.1.15,2013-04-15 15:00:00,
2013-04-15 08:06:00,39.6,38.8,29.90,SW,229,4.0,5.0,97,0.00,,,0.05,Wunderground v.1.15,2013-04-15 15:06:00,
2013-04-15 08:11:00,39.4,38.6,29.90,South,187,4.0,6.0,97,0.00,,,0.05,Wunderground v.1.15,2013-04-15 15:11:00,
2013-04-15 08:16:00,39.3,38.5,29.90,South,186,4.0,6.0,97,0.00,,,0.05,Wunderground v.1.15,2013-04-15 15:16:00,
2013-04-15 08:22:00,39.4,38.6,29.90,South,182,4.0,6.0,97,0.00,,,0.05,Wunderground v.1.15,2013-04-15 15:22:00,
2013-04-15 08:27:00,39.3,38.5,29.90,SSW,197,4.0,6.0,97,0.00,,,0.05,Wunderground v.1.15,2013-04-15 15:27:00,
2013-04-15 08:32:00,39.7,38.9,29.90,SSW,209,4.0,8.0,97,0.00,,,0.05,Wunderground v.1.15,2013-04-15 15:32:00,
2013-04-15 08:37:00,39.8,39.0,29.90,SSW,203,4.0,8.0,97,0.00,,,0.05,Wunderground v.1.15,2013-04-15 15:37:00,
2013-04-15 08:43:00,39.7,38.9,29.90,South,173,5.0,8.0,97,0.00,,,0.05,Wunderground v.1.15,2013-04-15 15:43:00,
2013-04-15 08:49:00,39.7,38.9,29.90,South,173,5.0,8.0,97,0.00,,,0.05,Wunderground v.1.15,2013-04-15 15:49:00,
2013-04-15 08:54:00,39.5,38.7,29.90,South,177,5.0,8.0,97,0.00,,,0.05,Wunderground v.1.15,2013-04-15 15:54:00,
2013-04-15 09:00:00,39.3,38.5,29.90,South,177,5.0,8.0,97,0.00,,,0.05,Wunderground v.1.15,2013-04-15 16:00:00,
2013-04-15 09:06:00,39.4,38.6,29.90,SSW,211,5.0,8.0,97,0.00,,,0.05,Wunderground v.1.15,2013-04-15 16:06:00,
2013-04-15 09:12:00,39.7,38.9,29.90,SSE,164,4.0,6.0,97,0.00,,,0.05,Wunderground v.1.15,2013-04-15 16:12:00,
2013-04-15 09:18:00,39.6,38.8,29.90,South,175,4.0,8.0,97,0.00,,,0.05,Wunderground v.1.15,2013-04-15 16:18:00,
2013-04-15 09:24:00,39.8,39.0,29.90,South,182,5.0,6.0,97,0.00,,,0.05,Wunderground v.1.15,2013-04-15 16:24:00,
2013-04-15 09:29:00,39.6,38.8,29.90,South,178,5.0,7.0,97,0.00,,,0.05,Wunderground v.1.15,2013-04-15 16:29:00,
2013-04-15 09:35:00,39.7,38.9,29.90,South,180,6.0,9.0,97,0.00,,,0.05,Wunderground v.1.15,2013-04-15 16:35:00,
2013-04-15 09:41:00,40.2,39.4,29.90,South,187,5.0,9.0,97,0.00,,,0.05,Wunderground v.1.15,2013-04-15 16:41:00,
2013-04-15 09:46:00,40.6,39.8,29.90,SSE,166,5.0,9.0,97,0.00,,,0.05,Wunderground v.1.15,2013-04-15 16:46:00,
2013-04-15 09:52:00,40.7,39.9,29.91,South,171,5.0,9.0,97,0.00,,,0.05,Wunderground v.1.15,2013-04-15 16:52:00,
2013-04-15 09:57:00,40.6,39.8,29.91,South,179,4.0,9.0,97,0.00,,,0.05,Wunderground v.1.15,2013-04-15 16:57:00,
2013-04-15 10:02:00,40.6,39.8,29.90,SSW,197,4.0,7.0,97,0.00,,,0.05,Wunderground v.1.15,2013-04-15 17:02:00,
2013-04-15 10:07:00,40.9,40.1,29.91,South,184,4.0,7.0,97,0.00,,,0.05,Wunderground v.1.15,2013-04-15 17:07:00,
2013-04-15 10:12:00,41.1,40.3,29.91,South,186,4.0,4.0,97,0.00,,,0.05,Wunderground v.1.15,2013-04-15 17:12:00,
2013-04-15 10:18:00,41.5,40.7,29.91,South,181,5.0,8.0,97,0.00,,,0.05,Wunderground v.1.15,2013-04-15 17:18:00,
2013-04-15 10:21:00,41.4,40.6,29.91,South,185,5.0,5.0,97,0.00,,,0.05,Wunderground v.1.15,2013-04-15 17:21:00,
2013-04-15 10:22:00,41.6,40.8,29.91,South,177,5.0,5.0,97,0.00,,,0.05,Wunderground v.1.15,2013-04-15 17:22:00,
2013-04-15 10:23:00,41.8,41.0,29.91,South,188,5.0,5.0,97,0.00,,,0.05,Wunderground v.1.15,2013-04-15 17:23:00,
2013-04-15 10:24:00,41.8,41.0,29.91,South,175,5.0,5.0,97,0.00,,,0.05,Wunderground v.1.15,2013-04-15 17:24:00,
2013-04-15 10:25:00,41.7,40.9,29.91,SSW,201,5.0,5.0,97,0.00,,,0.05,Wunderground v.1.15,2013-04-15 17:25:00,
2013-04-15 10:31:00,41.5,40.7,29.91,SSE,165,4.0,9.0,97,0.00,,,0.05,Wunderground v.1.15,2013-04-15 17:31:00,
2013-04-15 10:37:00,41.4,40.6,29.91,South,171,5.0,9.0,97,0.00,,,0.05,Wunderground v.1.15,2013-04-15 17:37:00,
2013-04-15 10:42:00,41.3,40.5,29.92,South,182,5.0,9.0,97,0.00,,,0.05,Wunderground v.1.15,2013-04-15 17:42:00,
2013-04-15 10:47:00,41.5,40.7,29.92,SSE,168,5.0,9.0,97,0.00,,,0.05,Wunderground v.1.15,2013-04-15 17:47:00,
2013-04-15 10:53:00,42.2,41.4,29.92,South,173,4.0,9.0,97,0.00,,,0.05,Wunderground v.1.15,2013-04-15 17:53:00,
2013-04-15 10:58:00,41.8,41.0,29.92,South,179,4.0,9.0,97,0.00,,,0.05,Wunderground v.1.15,2013-04-15 17:58:00,
2013-04-15 11:04:00,41.9,41.1,29.92,SSW,213,5.0,5.0,97,0.00,,,0.05,Wunderground v.1.15,2013-04-15 18:04:00,
2013-04-15 11:10:00,42.5,41.7,29.92,South,169,4.0,4.0,97,0.00,,,0.05,Wunderground v.1.15,2013-04-15 18:10:00,
2013-04-15 11:15:00,42.7,41.9,29.92,South,186,4.0,7.0,97,0.00,,,0.05,Wunderground v.1.15,2013-04-15 18:15:00,
2013-04-15 11:21:00,44.7,43.9,29.92,SSE,152,5.0,6.0,97,0.00,,,0.05,Wunderground v.1.15,2013-04-15 18:21:00,
2013-04-15 11:26:00,44.3,42.7,29.92,South,185,5.0,6.0,94,0.00,,,0.05,Wunderground v.1.15,2013-04-15 18:26:00,
2013-04-15 11:29:00,43.5,41.3,29.92,South,178,5.0,9.0,92,0.00,,,0.05,Wunderground v.1.15,2013-04-15 18:29:00,
2013-04-15 11:30:00,43.4,41.5,29.92,SSW,213,5.0,8.0,93,0.00,,,0.05,Wunderground v.1.15,2013-04-15 18:30:00,
2013-04-15 11:31:00,43.4,41.8,29.92,South,180,6.0,10.0,94,0.00,,,0.05,Wunderground v.1.15,2013-04-15 18:31:00,
2013-04-15 11:34:00,44.0,42.7,29.92,South,186,6.0,10.0,95,0.00,,,0.05,Wunderground v.1.15,2013-04-15 18:34:00,
2013-04-15 11:39:00,44.7,42.2,29.92,South,180,7.0,10.0,91,0.00,,,0.05,Wunderground v.1.15,2013-04-15 18:39:00,
2013-04-15 11:45:00,45.1,43.2,29.92,South,169,7.0,10.0,93,0.00,,,0.05,Wunderground v.1.15,2013-04-15 18:45:00,
2013-04-15 11:51:00,45.3,42.5,29.92,South,169,7.0,10.0,90,0.00,,,0.05,Wunderground v.1.15,2013-04-15 18:51:00,
2013-04-15 11:56:00,46.1,43.0,29.92,South,188,7.0,10.0,89,0.00,,,0.05,Wunderground v.1.15,2013-04-15 18:56:00,
2013-04-15 12:01:00,47.1,44.0,29.92,SSW,201,8.0,8.0,89,0.00,,,0.05,Wunderground v.1.15,2013-04-15 19:01:00,
2013-04-15 12:07:00,47.7,41.2,29.92,South,170,8.0,9.0,78,0.00,,,0.05,Wunderground v.1.15,2013-04-15 19:07:00,
2013-04-15 12:13:00,47.7,41.5,29.92,SW,215,7.0,9.0,79,0.00,,,0.05,Wunderground v.1.15,2013-04-15 19:13:00,
2013-04-15 12:18:00,47.8,42.3,29.92,SSW,202,6.0,9.0,81,0.00,,,0.05,Wunderground v.1.15,2013-04-15 19:18:00,
2013-04-15 12:24:00,47.5,40.6,29.92,SW,229,6.0,10.0,77,0.00,,,0.05,Wunderground v.1.15,2013-04-15 19:24:00,
2013-04-15 12:29:00,47.6,41.7,29.92,SW,230,7.0,7.0,80,0.00,,,0.05,Wunderground v.1.15,2013-04-15 19:29:00,
2013-04-15 12:35:00,47.3,40.8,29.92,SW,219,7.0,18.0,78,0.00,,,0.05,Wunderground v.1.15,2013-04-15 19:35:00,
2013-04-15 12:40:00,48.1,41.2,29.92,WSW,238,7.0,18.0,77,0.00,,,0.05,Wunderground v.1.15,2013-04-15 19:40:00,
2013-04-15 12:45:00,48.2,41.7,29.92,SSW,199,7.0,18.0,78,0.00,,,0.05,Wunderground v.1.15,2013-04-15 19:45:00,
2013-04-15 12:51:00,49.2,41.6,29.92,SW,220,7.0,10.0,75,0.00,,,0.05,Wunderground v.1.15,2013-04-15 19:51:00,
2013-04-15 12:57:00,49.9,40.9,29.92,WSW,248,8.0,18.0,71,0.00,,,0.05,Wunderground v.1.15,2013-04-15 19:57:00,
2013-04-15 12:58:00,50.0,41.0,29.92,SSW,207,8.0,18.0,71,0.00,,,0.05,Wunderground v.1.15,2013-04-15 19:58:00,
2013-04-15 13:00:00,50.0,40.2,29.92,SW,236,8.0,10.0,69,0.00,,,0.05,Wunderground v.1.15,2013-04-15 20:00:00,
2013-04-15 13:01:00,49.7,39.6,29.92,SW,234,8.0,11.0,68,0.00,,,0.05,Wunderground v.1.15,2013-04-15 20:01:00,
2013-04-15 13:02:00,49.0,40.7,29.92,SW,224,8.0,13.0,73,0.00,,,0.05,Wunderground v.1.15,2013-04-15 20:02:00,
2013-04-15 13:04:00,48.8,40.2,29.92,WSW,244,9.0,13.0,72,0.00,,,0.05,Wunderground v.1.15,2013-04-15 20:04:00,
2013-04-15 13:07:00,48.1,39.1,29.92,SSW,207,9.0,13.0,71,0.00,,,0.05,Wunderground v.1.15,2013-04-15 20:07:00,
2013-04-15 13:12:00,49.6,40.9,29.92,WSW,256,8.0,10.0,72,0.00,,,0.05,Wunderground v.1.15,2013-04-15 20:12:00,
2013-04-15 13:15:00,49.9,40.9,29.92,SSW,213,8.0,10.0,71,0.00,,,0.05,Wunderground v.1.15,2013-04-15 20:15:00,
2013-04-15 13:20:00,49.7,40.7,29.93,SW,218,8.0,8.0,71,0.00,,,0.05,Wunderground v.1.15,2013-04-15 20:20:00,
2013-04-15 13:26:00,48.6,39.3,29.93,South,191,8.0,12.0,70,0.00,,,0.05,Wunderground v.1.15,2013-04-15 20:26:00,
2013-04-15 13:32:00,48.6,38.5,29.92,SW,224,9.0,17.0,68,0.00,,,0.05,Wunderground v.1.15,2013-04-15 20:32:00,
2013-04-15 13:37:00,49.2,40.9,29.93,SW,220,8.0,17.0,73,0.00,,,0.05,Wunderground v.1.15,2013-04-15 20:37:00,
2013-04-15 13:43:00,48.9,40.3,29.93,West,264,8.0,17.0,72,0.00,,,0.05,Wunderground v.1.15,2013-04-15 20:43:00,
2013-04-15 13:48:00,49.5,39.7,29.93,SW,229,7.0,17.0,69,0.00,,,0.05,Wunderground v.1.15,2013-04-15 20:48:00,
2013-04-15 13:54:00,49.0,40.0,29.93,SW,234,7.0,17.0,71,0.00,,,0.05,Wunderground v.1.15,2013-04-15 20:54:00,
2013-04-15 13:59:00,50.5,39.2,29.93,WSW,240,7.0,17.0,65,0.00,,,0.05,Wunderground v.1.15,2013-04-15 20:59:00,
2013-04-15 14:05:00,48.6,38.9,29.93,SW,225,7.0,13.0,69,0.00,,,0.05,Wunderground v.1.15,2013-04-15 21:05:00,
2013-04-15 14:11:00,48.8,38.7,29.93,WSW,255,7.0,10.0,68,0.00,,,0.05,Wunderground v.1.15,2013-04-15 21:11:00,
2013-04-15 14:16:00,49.1,38.6,29.93,South,184,7.0,10.0,67,0.00,,,0.05,Wunderground v.1.15,2013-04-15 21:16:00,
2013-04-15 14:22:00,49.3,39.9,29.93,WSW,244,7.0,10.0,70,0.00,,,0.05,Wunderground v.1.15,2013-04-15 21:22:00,
2013-04-15 14:28:00,51.4,39.6,29.93,WSW,242,7.0,10.0,64,0.00,,,0.05,Wunderground v.1.15,2013-04-15 21:28:00,
2013-04-15 14:34:00,50.7,39.0,29.93,SW,236,8.0,15.0,64,0.00,,,0.05,Wunderground v.1.15,2013-04-15 21:34:00,
2013-04-15 14:39:00,49.6,39.5,29.93,SSW,207,9.0,15.0,68,0.00,,,0.05,Wunderground v.1.15,2013-04-15 21:39:00,
2013-04-15 14:45:00,50.0,39.5,29.92,SW,217,8.0,15.0,67,0.00,,,0.05,Wunderground v.1.15,2013-04-15 21:45:00,
2013-04-15 14:51:00,49.4,38.5,29.92,West,267,7.0,15.0,66,0.00,,,0.05,Wunderground v.1.15,2013-04-15 21:51:00,
2013-04-15 14:56:00,50.5,38.8,29.92,SSW,207,6.0,15.0,64,0.00,,,0.05,Wunderground v.1.15,2013-04-15 21:56:00,
2013-04-15 15:02:00,50.5,38.8,29.92,West,277,7.0,7.0,64,0.00,,,0.05,Wunderground v.1.15,2013-04-15 22:02:00,
2013-04-15 15:08:00,50.6,38.9,29.92,West,277,7.0,18.0,64,0.00,,,0.05,Wunderground v.1.15,2013-04-15 22:08:00,
2013-04-15 15:13:00,49.3,38.0,29.92,SW,223,6.0,12.0,65,0.00,,,0.05,Wunderground v.1.15,2013-04-15 22:13:00,
2013-04-15 15:19:00,49.5,39.0,29.91,SW,233,8.0,14.0,67,0.00,,,0.05,Wunderground v.1.15,2013-04-15 22:19:00,
2013-04-15 15:25:00,49.5,38.6,29.91,West,261,10.0,10.0,66,0.00,,,0.05,Wunderground v.1.15,2013-04-15 22:25:00,
2013-04-15 15:30:00,49.5,37.8,29.91,SSW,209,9.0,12.0,64,0.00,,,0.05,Wunderground v.1.15,2013-04-15 22:30:00,
2013-04-15 15:36:00,49.0,38.9,29.90,WSW,247,8.0,18.0,68,0.00,,,0.06,Wunderground v.1.15,2013-04-15 22:36:00,
2013-04-15 15:42:00,47.6,37.9,29.91,SW,236,8.0,18.0,69,0.00,,,0.06,Wunderground v.1.15,2013-04-15 22:42:00,
2013-04-15 15:48:00,47.3,38.4,29.91,West,262,8.0,18.0,71,0.00,,,0.06,Wunderground v.1.15,2013-04-15 22:48:00,
2013-04-15 15:54:00,47.0,37.4,29.91,West,267,5.0,18.0,69,0.00,,,0.06,Wunderground v.1.15,2013-04-15 22:54:00,
2013-04-15 15:59:00,46.3,37.0,29.91,West,274,4.0,18.0,70,0.00,,,0.06,Wunderground v.1.15,2013-04-15 22:59:00,
2013-04-15 16:05:00,47.4,38.1,29.90,WSW,250,5.0,8.0,70,0.00,,,0.06,Wunderground v.1.15,2013-04-15 23:05:00,
2013-04-15 16:11:00,47.7,36.5,29.90,West,269,5.0,6.0,65,0.00,,,0.06,Wunderground v.1.15,2013-04-15 23:11:00,
2013-04-15 16:16:00,47.5,35.9,29.90,West,265,5.0,8.0,64,0.00,,,0.06,Wunderground v.1.15,2013-04-15 23:16:00,
2013-04-15 16:22:00,47.4,36.6,29.89,West,268,5.0,6.0,66,0.00,,,0.06,Wunderground v.1.15,2013-04-15 23:22:00,
2013-04-15 16:28:00,47.6,36.8,29.89,West,275,4.0,6.0,66,0.00,,,0.06,Wunderground v.1.15,2013-04-15 23:28:00,
2013-04-15 16:34:00,47.6,36.4,29.89,West,263,4.0,21.0,65,0.00,,,0.06,Wunderground v.1.15,2013-04-15 23:34:00,
2013-04-15 16:39:00,47.4,36.6,29.90,West,270,4.0,21.0,66,0.00,,,0.06,Wunderground v.1.15,2013-04-15 23:39:00,
2013-04-15 16:45:00,47.4,36.2,29.88,West,259,4.0,21.0,65,0.00,,,0.06,Wunderground v.1.15,2013-04-15 23:45:00,
2013-04-15 16:51:00,47.3,35.3,29.88,West,276,4.0,21.0,63,0.00,,,0.06,Wunderground v.1.15,2013-04-15 23:51:00,
2013-04-15 16:56:00,46.8,34.9,29.90,WSW,237,5.0,21.0,63,0.00,,,0.06,Wunderground v.1.15,2013-04-15 23:56:00,
2013-04-15 17:02:00,46.8,34.9,29.91,West,262,5.0,6.0,63,0.00,,,0.06,Wunderground v.1.15,2013-04-16 00:02:00,
2013-04-15 17:08:00,46.4,33.7,29.91,West,263,4.0,7.0,61,0.00,,,0.06,Wunderground v.1.15,2013-04-16 00:08:00,
2013-04-15 17:14:00,46.1,33.8,29.90,WSW,242,5.0,11.0,62,0.00,,,0.06,Wunderground v.1.15,2013-04-16 00:14:00,
2013-04-15 17:19:00,45.8,33.9,29.89,WNW,292,6.0,12.0,63,0.00,,,0.06,Wunderground v.1.15,2013-04-16 00:19:00,
2013-04-15 17:24:00,45.6,34.5,29.89,WSW,244,5.0,6.0,65,0.00,,,0.06,Wunderground v.1.15,2013-04-16 00:24:00,
2013-04-15 17:30:00,45.2,34.1,29.90,WSW,245,5.0,5.0,65,0.00,,,0.06,Wunderground v.1.15,2013-04-16 00:30:00,
2013-04-15 17:36:00,44.9,34.2,29.90,SW,229,5.0,16.0,66,0.00,,,0.06,Wunderground v.1.15,2013-04-16 00:36:00,
2013-04-15 17:41:00,44.5,33.8,29.90,WSW,250,5.0,16.0,66,0.00,,,0.06,Wunderground v.1.15,2013-04-16 00:41:00,
2013-04-15 17:46:00,44.3,34.0,29.91,West,259,5.0,16.0,67,0.00,,,0.06,Wunderground v.1.15,2013-04-16 00:46:00,
2013-04-15 17:52:00,43.9,34.4,29.90,WSW,254,4.0,16.0,69,0.00,,,0.06,Wunderground v.1.15,2013-04-16 00:52:00,
2013-04-15 17:58:00,43.8,35.0,29.90,WSW,246,4.0,16.0,71,0.00,,,0.06,Wunderground v.1.15,2013-04-16 00:58:00,
2013-04-15 18:03:00,43.5,34.7,29.90,West,274,5.0,8.0,71,0.00,,,0.06,Wunderground v.1.15,2013-04-16 01:03:00,
2013-04-15 18:09:00,42.5,34.8,29.90,West,273,4.0,8.0,74,0.00,,,0.06,Wunderground v.1.15,2013-04-16 01:09:00,
2013-04-15 18:14:00,42.3,34.6,29.90,WNW,284,3.0,5.0,74,0.00,,,0.06,Wunderground v.1.15,2013-04-16 01:14:00,
2013-04-15 18:20:00,42.3,34.9,29.90,SSW,202,3.0,5.0,75,0.00,,,0.06,Wunderground v.1.15,2013-04-16 01:20:00,
2013-04-15 18:26:00,42.3,35.3,29.91,WSW,247,4.0,8.0,76,0.00,,,0.06,Wunderground v.1.15,2013-04-16 01:26:00,
2013-04-15 18:31:00,42.1,35.4,29.91,West,272,5.0,15.0,77,0.00,,,0.06,Wunderground v.1.15,2013-04-16 01:31:00,
2013-04-15 18:37:00,41.6,35.2,29.90,West,271,3.0,15.0,78,0.00,,,0.06,Wunderground v.1.15,2013-04-16 01:37:00,
2013-04-15 18:43:00,41.4,36.0,29.91,SW,219,3.0,15.0,81,0.00,,,0.06,Wunderground v.1.15,2013-04-16 01:43:00,
2013-04-15 18:48:00,41.5,36.1,29.91,West,261,4.0,15.0,81,0.00,,,0.06,Wunderground v.1.15,2013-04-16 01:48:00,
2013-04-15 18:54:00,41.5,36.1,29.91,WNW,299,4.0,15.0,81,0.00,,,0.06,Wunderground v.1.15,2013-04-16 01:54:00,
2013-04-15 18:59:00,41.4,36.0,29.90,West,263,3.0,15.0,81,0.00,,,0.06,Wunderground v.1.15,2013-04-16 01:59:00,
2013-04-15 19:05:00,41.3,36.2,29.91,West,269,3.0,3.0,82,0.00,,,0.06,Wunderground v.1.15,2013-04-16 02:05:00,
2013-04-15 19:11:00,41.2,36.1,29.91,West,268,3.0,3.0,82,0.00,,,0.06,Wunderground v.1.15,2013-04-16 02:11:00,
2013-04-15 19:16:00,41.1,36.3,29.91,SSW,213,3.0,6.0,83,0.00,,,0.06,Wunderground v.1.15,2013-04-16 02:16:00,
2013-04-15 19:22:00,41.1,36.3,29.91,WSW,253,4.0,4.0,83,0.00,,,0.06,Wunderground v.1.15,2013-04-16 02:22:00,
2013-04-15 19:28:00,40.9,36.1,29.91,WNW,302,3.0,4.0,83,0.00,,,0.06,Wunderground v.1.15,2013-04-16 02:28:00,
2013-04-15 19:34:00,40.5,35.7,29.91,SW,227,3.0,12.0,83,0.00,,,0.06,Wunderground v.1.15,2013-04-16 02:34:00,
2013-04-15 19:40:00,40.1,35.7,29.92,WSW,242,4.0,4.0,84,0.00,,,0.06,Wunderground v.1.15,2013-04-16 02:40:00,
2013-04-15 19:46:00,39.7,35.9,29.92,SW,215,5.0,12.0,86,0.00,,,0.06,Wunderground v.1.15,2013-04-16 02:46:00,
2013-04-15 19:51:00,39.4,35.9,29.92,SW,215,4.0,12.0,87,0.00,,,0.06,Wunderground v.1.15,2013-04-16 02:51:00,
2013-04-15 19:57:00,39.3,35.8,29.92,SSW,200,3.0,12.0,87,0.00,,,0.06,Wunderground v.1.15,2013-04-16 02:57:00,
2013-04-15 20:03:00,39.1,35.8,29.92,SSW,212,4.0,8.0,88,0.00,,,0.06,Wunderground v.1.15,2013-04-16 03:03:00,
2013-04-15 20:08:00,39.0,35.7,29.92,SW,221,4.0,8.0,88,0.00,,,0.06,Wunderground v.1.15,2013-04-16 03:08:00,
2013-04-15 20:14:00,38.8,35.6,29.92,SW,219,4.0,7.0,88,0.00,,,0.06,Wunderground v.1.15,2013-04-16 03:14:00,
2013-04-15 20:20:00,38.6,35.6,29.93,South,185,4.0,4.0,89,0.00,,,0.06,Wunderground v.1.15,2013-04-16 03:20:00,
2013-04-15 20:25:00,38.6,35.9,29.93,SSW,209,4.0,4.0,90,0.00,,,0.06,Wunderground v.1.15,2013-04-16 03:25:00,
2013-04-15 20:31:00,38.5,35.8,29.93,SSW,213,5.0,8.0,90,0.00,,,0.06,Wunderground v.1.15,2013-04-16 03:31:00,
2013-04-15 20:36:00,38.4,35.7,29.93,SSW,210,4.0,8.0,90,0.00,,,0.06,Wunderground v.1.15,2013-04-16 03:36:00,
2013-04-15 20:42:00,38.3,35.9,29.93,SSW,209,4.0,8.0,91,0.00,,,0.06,Wunderground v.1.15,2013-04-16 03:42:00,
2013-04-15 20:48:00,38.4,36.0,29.93,South,185,4.0,8.0,91,0.00,,,0.06,Wunderground v.1.15,2013-04-16 03:48:00,
2013-04-15 20:54:00,38.4,36.0,29.94,South,182,3.0,8.0,91,0.00,,,0.06,Wunderground v.1.15,2013-04-16 03:54:00,
2013-04-15 20:59:00,38.4,36.0,29.94,South,169,4.0,8.0,91,0.00,,,0.06,Wunderground v.1.15,2013-04-16 03:59:00,
2013-04-15 21:00:00,38.4,36.0,29.94,South,176,4.0,4.0,91,0.00,,,0.06,Wunderground v.1.15,2013-04-16 04:00:00,
2013-04-15 21:01:00,38.4,36.0,29.94,South,178,3.0,4.0,91,0.00,,,0.06,Wunderground v.1.15,2013-04-16 04:01:00,
2013-04-15 21:02:00,38.3,35.9,29.94,South,175,4.0,4.0,91,0.00,,,0.06,Wunderground v.1.15,2013-04-16 04:02:00,
2013-04-15 21:04:00,38.3,35.9,29.94,South,171,4.0,4.0,91,0.00,,,0.06,Wunderground v.1.15,2013-04-16 04:04:00,
2013-04-15 21:05:00,38.3,35.9,29.95,SSW,200,4.0,4.0,91,0.00,,,0.06,Wunderground v.1.15,2013-04-16 04:05:00,
2013-04-15 21:11:00,38.2,35.8,29.95,SSW,198,3.0,3.0,91,0.00,,,0.06,Wunderground v.1.15,2013-04-16 04:11:00,
2013-04-15 21:17:00,38.0,35.9,29.95,South,182,3.0,5.0,92,0.00,,,0.06,Wunderground v.1.15,2013-04-16 04:17:00,
2013-04-15 21:22:00,38.0,35.9,29.95,South,172,3.0,3.0,92,0.00,,,0.06,Wunderground v.1.15,2013-04-16 04:22:00,
2013-04-15 21:27:00,38.0,35.9,29.96,South,184,3.0,5.0,92,0.00,,,0.06,Wunderground v.1.15,2013-04-16 04:27:00,
2013-04-15 21:33:00,38.0,36.2,29.96,South,181,2.0,9.0,93,0.00,,,0.06,Wunderground v.1.15,2013-04-16 04:33:00,
2013-04-15 21:39:00,38.0,36.2,29.96,SSE,148,3.0,9.0,93,0.00,,,0.06,Wunderground v.1.15,2013-04-16 04:39:00,
2013-04-15 21:45:00,38.0,36.2,29.96,South,172,3.0,9.0,93,0.00,,,0.06,Wunderground v.1.15,2013-04-16 04:45:00,
2013-04-15 21:51:00,38.0,36.2,29.96,South,182,2.0,9.0,93,0.00,,,0.06,Wunderground v.1.15,2013-04-16 04:51:00,
2013-04-15 21:57:00,37.9,36.1,29.97,SSE,167,2.0,9.0,93,0.00,,,0.06,Wunderground v.1.15,2013-04-16 04:57:00,
2013-04-15 22:03:00,37.9,36.3,29.97,South,174,2.0,2.0,94,0.00,,,0.06,Wunderground v.1.15,2013-04-16 05:03:00,
2013-04-15 22:09:00,38.0,36.4,29.97,SSW,205,1.0,2.0,94,0.00,,,0.06,Wunderground v.1.15,2013-04-16 05:09:00,
2013-04-15 22:15:00,38.0,36.4,29.96,SSW,205,1.0,2.0,94,0.00,,,0.06,Wunderground v.1.15,2013-04-16 05:15:00,
2013-04-15 22:21:00,37.9,36.1,29.96,SSW,205,0.0,1.0,93,0.00,,,0.06,Wunderground v.1.15,2013-04-16 05:21:00,
2013-04-15 22:27:00,37.6,35.8,29.96,SSW,205,0.0,1.0,93,0.00,,,0.06,Wunderground v.1.15,2013-04-16 05:27:00,
2013-04-15 22:33:00,37.5,35.7,29.96,WNW,301,0.0,6.0,93,0.00,,,0.06,Wunderground v.1.15,2013-04-16 05:33:00,
2013-04-15 22:39:00,37.5,35.7,29.97,NW,310,2.0,6.0,93,0.00,,,0.06,Wunderground v.1.15,2013-04-16 05:39:00,
2013-04-15 22:45:00,37.8,36.0,29.97,NW,315,3.0,6.0,93,0.00,,,0.06,Wunderground v.1.15,2013-04-16 05:45:00,
2013-04-15 22:50:00,37.9,35.8,29.97,NW,318,3.0,6.0,92,0.00,,,0.06,Wunderground v.1.15,2013-04-16 05:50:00,
2013-04-15 22:56:00,37.9,35.5,29.97,WNW,288,2.0,6.0,91,0.00,,,0.06,Wunderground v.1.15,2013-04-16 05:56:00,
2013-04-15 23:02:00,37.9,35.2,29.97,WNW,301,2.0,4.0,90,0.00,,,0.06,Wunderground v.1.15,2013-04-16 06:02:00,
2013-04-15 23:08:00,37.8,35.1,29.97,NW,322,2.0,4.0,90,0.00,,,0.06,Wunderground v.1.15,2013-04-16 06:08:00,
2013-04-15 23:13:00,37.6,34.9,29.96,NW,324,1.0,2.0,90,0.00,,,0.06,Wunderground v.1.15,2013-04-16 06:13:00,
2013-04-15 23:19:00,37.4,34.7,29.96,NW,312,1.0,2.0,90,0.00,,,0.06,Wunderground v.1.15,2013-04-16 06:19:00,
2013-04-15 23:25:00,37.1,34.4,29.96,NW,312,0.0,1.0,90,0.00,,,0.06,Wunderground v.1.15,2013-04-16 06:25:00,
2013-04-15 23:30:00,36.6,33.9,29.96,NW,312,0.0,0.0,90,0.00,,,0.06,Wunderground v.1.15,2013-04-16 06:30:00,
2013-04-15 23:36:00,36.5,34.4,29.96,NW,312,0.0,8.0,92,0.00,,,0.06,Wunderground v.1.15,2013-04-16 06:36:00,
2013-04-15 23:42:00,36.6,34.5,29.97,NNW,344,0.0,8.0,92,0.00,,,0.06,Wunderground v.1.15,2013-04-16 06:42:00,
2013-04-15 23:48:00,36.8,34.7,29.97,NNW,344,0.0,8.0,92,0.00,,,0.06,Wunderground v.1.15,2013-04-16 06:48:00,
2013-04-15 23:54:00,37.0,34.9,29.97,NNW,344,0.0,8.0,92,0.00,,,0.06,Wunderground v.1.15,2013-04-16 06:54:00,